[[{"header":{"parameterUnit":"m.s-1","parameterCategory":2,"la1":30.2991,"la2":30.254,"lo1":-89.0895,"lo2":-89.0444,"dy":0.0017,"dx":0.0017,"nx":28,"ny":28,"refTime":"2025-12-10T03:00:00:Z","depth":"0","parameterNumber":2,"parameterNumberName":"U-component_of_CURRENTS"},"data":[0,0,0,0,0,0,0,0,0,0,0,0,0,0,0,0,0,0,0,0,0,0,0,0,0,0,0,0,0,0,0,0,0,0,0,0,0,0,0,0,0,0,0,0,0,0,0,0,0,0,0,0,0,0,0,0,0,0,0.2814,0.2814,0,0.2805,0.2805,0.2805,0.2795,0.2795,0.2795,0.2795,0.256,0.2554,0.2547,0,0,0,0,0,0,0,0,0,0,0,0,0,0.2755,0.2757,0.2814,0.2814,0.2814,0.2805,0.2805,0.2805,0.2795,0.2795,0.2795,0.2795,0.2562,0.2554,0.2547,0,0,0,0,0,0,0,0,0,0,0,0,0,0.2765,0.2757,0.2814,0.281,0.281,0.2806,0.2805,0.2805,0.2795,0.2795,0.2795,0.2795,0.2564,0.2555,0.2546,0.2483,0,0,0.2516,0.2512,0,0,0,0,0,0,0,0,0.2764,0.2767,0.2811,0.2811,0.281,0.2804,0.2698,0.2687,0.2795,0.2798,0.2795,0.2796,0.2622,0.2608,0.2605,0.2472,0.2462,0.2515,0.251,0.2506,0.2503,0,0,0,0,0,0,0,0.2764,0.2766,0.2808,0.2811,0.2811,0.2787,0.2788,0.2697,0.2702,0.2798,0.2798,0.2801,0.262,0.2615,0.2599,0.2459,0.2516,0.2507,0.2501,0.2498,0.2292,0.2292,0,0,0,0,0,0,0.2774,0.2766,0.2808,0.2808,0.279,0.2788,0.279,0.2803,0.2709,0.2697,0.2801,0.2801,0.2631,0.261,0.259,0.2529,0.2506,0.2497,0.2491,0.2292,0.2292,0.2292,0,0,0,0,0,0,0.2773,0.2778,0.2808,0.2788,0.2791,0.279,0.2804,0.2803,0.2796,0.2714,0.2698,0.2795,0.263,0.2603,0.2538,0.2519,0.2492,0.2484,0.2291,0.2292,0.2292,0.2394,0,0,0,0,0,0,0.2771,0.2778,0.2779,0.2789,0.2792,0.2802,0.2805,0.2803,0.28,0.2799,0.2703,0.2682,0.2628,0.2554,0.2529,0.2505,0.2476,0.2291,0.2291,0.2292,0.239,0.2398,0.2404,0,0,0,0,0,0.2769,0.2766,0.278,0.2784,0.2799,0.2802,0.2801,0.2798,0.2799,0.2792,0.2755,0.2685,0.2539,0.2547,0.2518,0.249,0.2291,0.2291,0.2292,0.2387,0.2396,0.2404,0,0,0,0,0,0,0.2725,0.2766,0.278,0.2786,0.2796,0.2802,0.279,0.2797,0.2765,0.2757,0.2688,0.2665,0.2603,0.2534,0.2545,0.2436,0.2401,0.2396,0.2483,0.2491,0.2498,0.2502,0.2468,0,0,0,0,0,0.2723,0.2737,0.2768,0.2766,0.2776,0.2785,0.2783,0.2789,0.277,0.2758,0.2705,0.264,0.2582,0.2531,0.2468,0.2395,0.2361,0.2359,0.2366,0.2373,0.2359,0.2325,0.2328,0.2294,0.2294,0.2294,0,0,0.2698,0.2725,0.2728,0.2759,0.2764,0.2774,0.2782,0.2782,0.2783,0.2728,0.2698,0.2658,0.2573,0.2519,0.248,0.2454,0.2372,0.2373,0.238,0.2361,0.2326,0.2329,0.2332,0.2295,0.2295,0.2295,0,0,0.2665,0.2689,0.2697,0.2715,0.274,0.275,0.2754,0.2769,0.2768,0.2745,0.2718,0.2684,0.2576,0.2537,0.2495,0.2492,0.2421,0.2458,0.2476,0.2445,0.2448,0.245,0.2448,0.2449,0.2449,0.2449,0.2449,0,0.2629,0.266,0.2691,0.2711,0.2721,0.2744,0.2751,0.2753,0.2745,0.2738,0.2738,0.2647,0.2586,0.2526,0.2543,0.2505,0.2486,0.2456,0.2456,0.2457,0.2457,0.2454,0.2454,0.2454,0.2454,0.2453,0.2453,0,0.262,0.2641,0.2642,0.2685,0.2695,0.2701,0.2728,0.2729,0.2735,0.2739,0.2704,0.2663,0.2604,0.2588,0.256,0.2524,0.2515,0.2484,0.2441,0.2467,0.2462,0.246,0.2461,0.2459,0.2458,0.2457,0,0,0.2536,0.2622,0.2617,0.2645,0.2688,0.2694,0.27,0.271,0.2708,0.2707,0.2694,0.2645,0.2641,0.2596,0.2566,0.2545,0.2557,0.2517,0.2514,0.2527,0.251,0.2508,0.2505,0.2528,0.2528,0.2527,0.2522,0,0.2513,0.2556,0.2598,0.2614,0.2642,0.2673,0.2676,0.2687,0.2692,0.2685,0.2665,0.2634,0.2636,0.2615,0.2601,0.2555,0.2548,0.2562,0.2471,0.2469,0.2472,0.25,0.2474,0.2466,0.2519,0.2519,0.2518,0,0.2486,0.2528,0.2553,0.2612,0.2621,0.2627,0.2642,0.2649,0.2651,0.2654,0.2643,0.263,0.2604,0.2603,0.2559,0.2568,0.2547,0.2526,0.2525,0.2475,0.246,0.2438,0.2459,0.2206,0.2514,0.2514,0.2515,0,0.2428,0.2487,0.2508,0.2528,0.2594,0.2595,0.2616,0.263,0.2631,0.2629,0.2625,0.2607,0.2581,0.2561,0.2535,0.2541,0.2489,0.2484,0.2471,0.2472,0.2403,0.2399,0.217,0.2455,0.2455,0.2455,0.2455,0,0.2393,0.2406,0.2484,0.2497,0.251,0.2563,0.2561,0.258,0.2592,0.2584,0.26,0.2582,0.2566,0.254,0.2529,0.2495,0.2482,0.2477,0.2463,0.2443,0.2442,0.2181,0.205,0.2455,0.2455,0.2455,0.2455,0,0.2323,0.2376,0.2407,0.2472,0.2488,0.2491,0.2535,0.2539,0.2556,0.2544,0.254,0.2545,0.2518,0.2512,0.2468,0.2473,0.2343,0.2435,0.2432,0.2418,0.2189,0.2067,0.1929,0.1892,0.2432,0.2431,0.2431,0,0.229,0.2303,0.2372,0.239,0.2417,0.2442,0.2462,0.2505,0.2513,0.2516,0.2504,0.2484,0.2465,0.243,0.2435,0.2428,0.2288,0.2394,0.2398,0.2163,0.2016,0.2007,0.1985,0.2366,0.2365,0.2364,0.2364,0,0.2222,0.2245,0.2281,0.2334,0.2359,0.2387,0.2421,0.2426,0.2464,0.2455,0.2442,0.2425,0.2415,0.2393,0.239,0.2382,0.223,0.2383,0.2116,0.1923,0.1916,0.1878,0.2397,0.2359,0.2359,0.236,0.236,0.236,0.2153,0.2168,0.2226,0.2275,0.2309,0.2335,0.2343,0.2373,0.2373,0.2333,0.2359,0.2296,0.231,0.2312,0.2281,0.212,0.2167,0.2025,0.1898,0.1914,0.1854,0.2381,0.2336,0.2336,0.2337,0.2337,0.2337,0,0.2073,0.2124,0.217,0.2227,0.2257,0.2291,0.2319,0.2309,0.2297,0.224,0.2206,0.2129,0.2061,0.2016,0.1902,0.1675,0.1687,0.1481,0.1396,0.1406,0.183,0.1796,0.1656,0.1656,0.1656,0.1656,0.1657,0.1657,0.2034,0.2066,0.2122,0.2169,0.2208,0.2211,0.222,0.2196,0.2166,0.203,0.1931,0.1888,0.1772,0.1436,0.1134,0.1073,0.0874,0.0837,0.0756,0.0917,0.0957,0.0994,0.0928,0.0609,0.0607,0.0425,0.0421,0.0418]},{"header":{"parameterUnit":"m.s-1","parameterCategory":2,"la1":30.2991,"la2":30.254,"lo1":-89.0895,"lo2":-89.0444,"dy":0.0017,"dx":0.0017,"nx":28,"ny":28,"refTime":"2025-12-10T03:00:00:Z","depth":"0","parameterNumber":3,"parameterNumberName":"V-component_of_CURRENTS"},"data":[0,0,0,0,0,0,0,0,0,0,0,0,0,0,0,0,0,0,0,0,0,0,0,0,0,0,0,0,0,0,0,0,0,0,0,0,0,0,0,0,0,0,0,0,0,0,0,0,0,0,0,0,0,0,0,0,0,0,-0.2167,-0.2167,0,-0.2157,-0.2156,-0.2156,-0.2105,-0.2104,-0.2103,-0.2102,-0.1894,-0.1889,-0.1884,0,0,0,0,0,0,0,0,0,0,0,0,0,-0.2087,-0.2089,-0.2167,-0.2167,-0.2167,-0.2157,-0.2156,-0.2156,-0.2105,-0.2104,-0.2103,-0.2102,-0.1895,-0.189,-0.1884,0,0,0,0,0,0,0,0,0,0,0,0,0,-0.2101,-0.2089,-0.2167,-0.2143,-0.2141,-0.2157,-0.2156,-0.2156,-0.2105,-0.2104,-0.2103,-0.2101,-0.1897,-0.189,-0.1883,-0.1867,0,0,-0.1862,-0.1859,0,0,0,0,0,0,0,0,-0.21,-0.2104,-0.2146,-0.2145,-0.2143,-0.2133,-0.2052,-0.205,-0.2106,-0.2116,-0.2102,-0.2101,-0.1958,-0.1946,-0.1946,-0.1857,-0.1848,-0.1861,-0.1857,-0.1854,-0.1852,0,0,0,0,0,0,0,-0.2099,-0.2103,-0.216,-0.2147,-0.2145,-0.2114,-0.2115,-0.2052,-0.2039,-0.2115,-0.2112,-0.2116,-0.1955,-0.1953,-0.194,-0.1845,-0.1861,-0.1855,-0.1851,-0.1848,-0.1699,-0.1699,0,0,0,0,0,0,-0.2112,-0.2103,-0.216,-0.216,-0.2121,-0.2117,-0.2117,-0.2135,-0.2044,-0.2031,-0.2117,-0.2114,-0.1966,-0.1948,-0.1932,-0.1884,-0.1854,-0.1847,-0.1843,-0.1698,-0.1699,-0.1699,0,0,0,0,0,0,-0.2111,-0.2118,-0.2161,-0.2132,-0.2136,-0.2121,-0.214,-0.2136,-0.2133,-0.2048,-0.2031,-0.2119,-0.1964,-0.1942,-0.1894,-0.1876,-0.1844,-0.1837,-0.1698,-0.1698,-0.1699,-0.1802,0,0,0,0,0,0,-0.2109,-0.2118,-0.2136,-0.2134,-0.2138,-0.2181,-0.2142,-0.2137,-0.2139,-0.2134,-0.2044,-0.2024,-0.1961,-0.1905,-0.1887,-0.1866,-0.1832,-0.1698,-0.1698,-0.1699,-0.1798,-0.1806,-0.1812,0,0,0,0,0,-0.2106,-0.2145,-0.2138,-0.2144,-0.2165,-0.2182,-0.2182,-0.2162,-0.2141,-0.2152,-0.2096,-0.2027,-0.1894,-0.1901,-0.1879,-0.1855,-0.1697,-0.1698,-0.1699,-0.1795,-0.1804,-0.1812,0,0,0,0,0,0,-0.2138,-0.2144,-0.2135,-0.2179,-0.2183,-0.2175,-0.219,-0.2172,-0.2141,-0.213,-0.2042,-0.2019,-0.1966,-0.1905,-0.1915,-0.1814,-0.1779,-0.1775,-0.1859,-0.1867,-0.1874,-0.1866,-0.1826,0,0,0,0,0,-0.2152,-0.2171,-0.2175,-0.2211,-0.2216,-0.2202,-0.2207,-0.2195,-0.2169,-0.2156,-0.2095,-0.2021,-0.1954,-0.191,-0.185,-0.18,-0.1735,-0.1767,-0.1774,-0.178,-0.176,-0.1669,-0.1666,-0.1701,-0.1701,-0.1701,0,0,-0.2174,-0.2182,-0.2193,-0.2216,-0.2217,-0.2227,-0.2201,-0.222,-0.2211,-0.2133,-0.2105,-0.2049,-0.1951,-0.1901,-0.1868,-0.1844,-0.1744,-0.1781,-0.1787,-0.1762,-0.1669,-0.1665,-0.1662,-0.1701,-0.1701,-0.1701,0,0,-0.2221,-0.2237,-0.2259,-0.2264,-0.2273,-0.2262,-0.2269,-0.2263,-0.2244,-0.222,-0.2155,-0.21,-0.2007,-0.1935,-0.1882,-0.1889,-0.1793,-0.1865,-0.1879,-0.1793,-0.1789,-0.1784,-0.1733,-0.1723,-0.1858,-0.1858,-0.1858,0,-0.2241,-0.2272,-0.2271,-0.2291,-0.2292,-0.2277,-0.2291,-0.2278,-0.2254,-0.2226,-0.2218,-0.2081,-0.2014,-0.1919,-0.1927,-0.19,-0.1849,-0.1859,-0.1802,-0.1796,-0.1789,-0.1737,-0.1724,-0.1863,-0.1862,-0.1862,-0.1861,0,-0.2296,-0.2314,-0.2334,-0.2339,-0.2345,-0.2362,-0.2341,-0.2334,-0.2306,-0.2273,-0.2201,-0.2127,-0.2035,-0.201,-0.1966,-0.1883,-0.1864,-0.1833,-0.1783,-0.1792,-0.1737,-0.1722,-0.187,-0.1868,-0.1867,-0.1866,0,0,-0.2335,-0.2361,-0.2363,-0.2361,-0.2365,-0.2372,-0.2363,-0.2334,-0.2307,-0.227,-0.2217,-0.2123,-0.2083,-0.202,-0.196,-0.1886,-0.1822,-0.1846,-0.1839,-0.1801,-0.1652,-0.1619,-0.16,-0.1782,-0.1779,-0.1777,-0.1646,0,-0.2365,-0.2402,-0.2402,-0.2416,-0.2427,-0.2403,-0.2391,-0.236,-0.2322,-0.2273,-0.2183,-0.2115,-0.2084,-0.2042,-0.1967,-0.1854,-0.1781,-0.1862,-0.1642,-0.1636,-0.1609,-0.158,-0.1476,-0.1348,-0.1631,-0.1628,-0.1626,0,-0.2399,-0.2416,-0.244,-0.2431,-0.2433,-0.2435,-0.2395,-0.2381,-0.231,-0.2277,-0.2201,-0.2137,-0.203,-0.2006,-0.1812,-0.1866,-0.1763,-0.168,-0.1672,-0.1583,-0.1573,-0.1375,-0.1309,-0.1159,-0.1603,-0.1604,-0.1606,0,-0.2406,-0.2429,-0.2442,-0.2445,-0.2443,-0.2435,-0.2424,-0.2376,-0.2346,-0.2274,-0.224,-0.212,-0.2046,-0.1906,-0.1763,-0.1774,-0.1552,-0.1541,-0.1413,-0.1411,-0.1246,-0.1234,-0.1002,-0.1384,-0.1384,-0.1384,-0.1385,0,-0.2423,-0.2429,-0.2447,-0.2453,-0.245,-0.2446,-0.2421,-0.2398,-0.2347,-0.2298,-0.2239,-0.2172,-0.2013,-0.1881,-0.1753,-0.1544,-0.154,-0.1394,-0.1357,-0.1285,-0.1279,-0.1078,-0.1057,-0.1379,-0.138,-0.1381,-0.1382,0,-0.2421,-0.2437,-0.2447,-0.2455,-0.2454,-0.2449,-0.2429,-0.2405,-0.2371,-0.2307,-0.2284,-0.2182,-0.2024,-0.1872,-0.164,-0.1521,-0.125,-0.1261,-0.1214,-0.1173,-0.0919,-0.0909,-0.0732,-0.0686,-0.1084,-0.1082,-0.108,0,-0.2422,-0.2433,-0.2447,-0.2447,-0.245,-0.2444,-0.2434,-0.2413,-0.2387,-0.2304,-0.2267,-0.2128,-0.2008,-0.1698,-0.1473,-0.1235,-0.1161,-0.099,-0.0977,-0.0865,-0.0826,-0.0895,-0.0875,-0.0812,-0.0809,-0.0806,-0.0803,0,-0.2416,-0.2424,-0.2429,-0.2442,-0.2439,-0.2427,-0.2416,-0.2402,-0.2361,-0.2302,-0.2208,-0.211,-0.1842,-0.1536,-0.125,-0.1091,-0.0904,-0.0922,-0.0777,-0.0563,-0.0644,-0.0595,-0.0981,-0.0777,-0.0779,-0.0781,-0.0783,-0.0784,-0.2399,-0.2403,-0.2417,-0.2421,-0.2419,-0.2404,-0.2375,-0.2349,-0.2291,-0.2134,-0.2109,-0.183,-0.1508,-0.1097,-0.0972,-0.0577,-0.0716,-0.0409,-0.0401,-0.0479,-0.0437,-0.0798,-0.0578,-0.0579,-0.058,-0.0581,-0.0582,0,-0.2381,-0.2388,-0.2395,-0.2394,-0.2384,-0.2386,-0.235,-0.2289,-0.2198,-0.1962,-0.1819,-0.128,-0.0922,-0.0614,-0.0174,-0.0019,-0.0072,0.0058,0.004,0.0039,-0.02,-0.0187,0.0096,0.0096,0.0095,0.0095,0.0095,0.0095,-0.237,-0.2375,-0.2385,-0.2362,-0.2351,-0.2291,-0.2255,-0.2147,-0.1963,-0.1523,-0.1095,-0.0816,-0.0344,0.0082,0.0462,0.0473,0.0506,0.0458,0.0436,0.0352,0.031,0.027,0.0293,0.0672,0.0673,0.0688,0.069,0.069]}],[{"header":{"parameterUnit":"m.s-1","parameterCategory":2,"la1":30.2991,"la2":30.254,"lo1":-89.0895,"lo2":-89.0444,"dy":0.0017,"dx":0.0017,"nx":28,"ny":28,"refTime":"2025-12-10T03:00:00:Z","depth":"2","parameterNumber":2,"parameterNumberName":"U-component_of_CURRENTS"},"data":[0,0,0,0,0,0,0,0,0,0,0,0,0,0,0,0,0,0,0,0,0,0,0,0,0,0,0,0,0,0,0,0,0,0,0,0,0,0,0,0,0,0,0,0,0,0,0,0,0,0,0,0,0,0,0,0,0,0,0.0518,0.0518,0,0.0498,0.0498,0.0498,0.0497,0.0497,0.0498,0.0498,0.0565,0.0566,0.0568,0,0,0,0,0,0,0,0,0,0,0,0,0,0.0586,0.0585,0.0518,0.0518,0.0517,0.0498,0.0498,0.0498,0.0497,0.0497,0.0498,0.0498,0.0564,0.0566,0.0568,0,0,0,0,0,0,0,0,0,0,0,0,0,0.056,0.0584,0.0518,0.0515,0.0515,0.0498,0.0498,0.0497,0.0497,0.0497,0.0498,0.0498,0.0564,0.0566,0.0568,0.0573,0,0,0.0575,0.0576,0,0,0,0,0,0,0,0,0.0561,0.0557,0.0516,0.0516,0.0515,0.0501,0.0547,0.0527,0.0497,0.0503,0.0498,0.0498,0.0552,0.0555,0.0548,0.0576,0.0579,0.0575,0.0577,0.0578,0.0578,0,0,0,0,0,0,0,0.0563,0.0558,0.0509,0.0516,0.0515,0.0526,0.0523,0.0543,0.0526,0.0502,0.0502,0.0501,0.0552,0.0546,0.055,0.058,0.0575,0.0577,0.0579,0.0579,0.0717,0.0719,0,0,0,0,0,0,0.0565,0.0559,0.051,0.0509,0.0541,0.0525,0.0521,0.0505,0.0524,0.0527,0.0501,0.0502,0.0542,0.0547,0.0552,0.0639,0.0578,0.058,0.0581,0.0714,0.0717,0.072,0,0,0,0,0,0,0.0566,0.056,0.0511,0.0536,0.053,0.0523,0.0505,0.0504,0.0525,0.0522,0.0527,0.0526,0.0542,0.0549,0.0598,0.0639,0.0581,0.0583,0.0712,0.0715,0.0719,0.0762,0,0,0,0,0,0,0.0568,0.056,0.0564,0.0535,0.0529,0.0518,0.0505,0.0503,0.0522,0.0523,0.0545,0.055,0.0543,0.0595,0.06,0.0641,0.0584,0.0709,0.0713,0.0717,0.0758,0.0767,0.0774,0,0,0,0,0,0.057,0.0559,0.0564,0.0559,0.0529,0.0519,0.0517,0.0513,0.0523,0.0534,0.0557,0.055,0.0626,0.0598,0.0604,0.0647,0.0707,0.0712,0.0717,0.0754,0.0765,0.0774,0,0,0,0,0,0,0.0593,0.0558,0.0562,0.0544,0.0545,0.0519,0.053,0.0533,0.0556,0.057,0.0572,0.0578,0.0637,0.0641,0.061,0.0702,0.0669,0.0676,0.0696,0.0706,0.0714,0.0704,0.0586,0,0,0,0,0,0.06,0.0586,0.0566,0.0561,0.0562,0.0557,0.056,0.056,0.0568,0.0578,0.0597,0.0627,0.0658,0.0682,0.0704,0.0752,0.0752,0.0789,0.0797,0.0804,0.0802,0.0851,0.0863,0.0737,0.0737,0.0737,0,0,0.0609,0.0591,0.0585,0.0567,0.0569,0.057,0.056,0.0571,0.0586,0.0585,0.0629,0.0656,0.0678,0.0728,0.0757,0.074,0.0838,0.081,0.0815,0.081,0.0858,0.087,0.088,0.074,0.074,0.0739,0,0,0.0614,0.0607,0.0599,0.06,0.0606,0.06,0.0613,0.0612,0.063,0.067,0.068,0.0733,0.0775,0.0799,0.0816,0.0889,0.0879,0.0908,0.0942,0.0991,0.1001,0.101,0.1012,0.102,0.0914,0.0914,0.0914,0,0.0637,0.0611,0.0602,0.06,0.0607,0.0619,0.0625,0.0641,0.0663,0.0689,0.0696,0.0783,0.0807,0.0868,0.0895,0.0907,0.0916,0.0898,0.0999,0.1008,0.1017,0.1017,0.1026,0.0917,0.0917,0.0917,0.0916,0,0.0622,0.0623,0.0624,0.0623,0.0633,0.0642,0.0657,0.069,0.0722,0.0741,0.0819,0.0854,0.0904,0.0933,0.0935,0.1016,0.0996,0.1,0.0966,0.1032,0.1028,0.1036,0.0921,0.092,0.0919,0.0919,0,0,0.0624,0.0614,0.062,0.0629,0.0646,0.0649,0.0691,0.0725,0.0758,0.0815,0.086,0.0941,0.0971,0.0993,0.1018,0.1065,0.1133,0.1063,0.1064,0.105,0.1212,0.1073,0.1069,0.1159,0.1161,0.1163,0.1179,0,0.0627,0.0619,0.0618,0.064,0.0641,0.0672,0.0705,0.0748,0.0791,0.084,0.0909,0.0961,0.0991,0.1022,0.1081,0.1113,0.1161,0.1126,0.1164,0.1164,0.1021,0.1076,0.095,0.0944,0.1188,0.1189,0.119,0,0.0612,0.0609,0.0618,0.0643,0.0649,0.0674,0.0729,0.0759,0.0832,0.0868,0.0943,0.0981,0.1064,0.1077,0.1181,0.1158,0.1196,0.1221,0.1222,0.1081,0.1041,0.0924,0.095,0.1204,0.1203,0.1202,0.1201,0,0.06,0.0614,0.0622,0.0629,0.0657,0.069,0.072,0.0783,0.0814,0.089,0.0917,0.1014,0.1055,0.1137,0.1191,0.1198,0.1278,0.129,0.12,0.1189,0.108,0.1055,0.1374,0.1374,0.1374,0.1374,0.1374,0,0.0587,0.0599,0.0624,0.0629,0.066,0.0689,0.0739,0.0776,0.0835,0.0877,0.0938,0.0977,0.1078,0.1129,0.1191,0.12,0.1284,0.1204,0.1192,0.1089,0.1065,0.1292,0.1282,0.1375,0.1375,0.1375,0.1374,0,0.0566,0.0581,0.0595,0.0633,0.0654,0.0681,0.0742,0.0773,0.0824,0.0876,0.0899,0.096,0.1029,0.1096,0.1197,0.1169,0.1209,0.1197,0.1035,0.1002,0.1088,0.1081,0.1098,0.1094,0.109,0.1087,0.1084,0,0.0545,0.0549,0.0594,0.0612,0.0637,0.0683,0.0718,0.0774,0.0804,0.0867,0.0887,0.0947,0.0985,0.1024,0.0996,0.1023,0.1152,0.0897,0.0888,0.1077,0.1065,0.1064,0.1062,0.0768,0.0763,0.0759,0.0756,0,0.0504,0.0532,0.0538,0.0582,0.0625,0.0661,0.0716,0.0728,0.0794,0.0816,0.0856,0.0882,0.0889,0.0817,0.0785,0.08,0.0874,0.0807,0.1084,0.0834,0.0761,0.075,0.0761,0.0719,0.0723,0.0725,0.0727,0.0729,0.0475,0.0475,0.0499,0.0544,0.0591,0.0632,0.0642,0.0676,0.0693,0.07,0.0788,0.0726,0.072,0.0556,0.058,0.0544,0.0622,0.0595,0.0611,0.0631,0.0567,0.0488,0.0381,0.0383,0.0384,0.0386,0.0387,0,0.0428,0.0447,0.0462,0.0504,0.0527,0.06,0.0631,0.0593,0.0579,0.0606,0.0633,0.0415,0.0371,0.0387,0.0238,0.0225,0.0275,0.0256,0.0324,0.0357,0.0387,0.0315,0.0061,0.0061,0.006,0.006,0,0,0.0397,0.0396,0.0407,0.043,0.0482,0.0497,0.0512,0.0442,0.0421,0.0297,0.0212,0.0318,0.0288,0.0134,0.0162,0.0099,0.0255,0.0095,0.0342,0.0455,0.0486,0.0544,0.0463,0,0,0,0,0]},{"header":{"parameterUnit":"m.s-1","parameterCategory":2,"la1":30.2991,"la2":30.254,"lo1":-89.0895,"lo2":-89.0444,"dy":0.0017,"dx":0.0017,"nx":28,"ny":28,"refTime":"2025-12-10T03:00:00:Z","depth":"2","parameterNumber":3,"parameterNumberName":"V-component_of_CURRENTS"},"data":[0,0,0,0,0,0,0,0,0,0,0,0,0,0,0,0,0,0,0,0,0,0,0,0,0,0,0,0,0,0,0,0,0,0,0,0,0,0,0,0,0,0,0,0,0,0,0,0,0,0,0,0,0,0,0,0,0,0,0.0329,0.0329,0,0.0275,0.0275,0.0274,0.0186,0.0184,0.0183,0.0182,0.0131,0.0131,0.0131,0,0,0,0,0,0,0,0,0,0,0,0,0,0.0386,0.0385,0.0329,0.0329,0.0328,0.0275,0.0275,0.0274,0.0186,0.0184,0.0183,0.0181,0.0131,0.0131,0.0131,0,0,0,0,0,0,0,0,0,0,0,0,0,0.0349,0.0385,0.0329,0.0279,0.0274,0.0276,0.0275,0.0274,0.0187,0.0184,0.0182,0.018,0.0131,0.0131,0.0131,0.0176,0,0,0.0131,0.0131,0,0,0,0,0,0,0,0,0.0351,0.0346,0.0287,0.0282,0.0277,0.0236,0.0276,0.0242,0.0187,0.0218,0.0181,0.0179,0.0169,0.0166,0.0159,0.0174,0.0172,0.0131,0.0131,0.0131,0.0131,0,0,0,0,0,0,0,0.0353,0.0348,0.0306,0.0287,0.0281,0.027,0.0261,0.0269,0.0206,0.0215,0.0209,0.0206,0.0166,0.0159,0.0157,0.0171,0.0131,0.0131,0.0131,0.0131,0.0141,0.0141,0,0,0,0,0,0,0.0364,0.0351,0.0308,0.0305,0.0311,0.027,0.0261,0.025,0.0206,0.0197,0.0208,0.0202,0.016,0.0157,0.0155,0.0139,0.0131,0.0131,0.0131,0.014,0.0141,0.0141,0,0,0,0,0,0,0.0365,0.036,0.031,0.0328,0.0321,0.0272,0.0261,0.0251,0.0206,0.02,0.0191,0.017,0.0158,0.0155,0.0136,0.0139,0.0131,0.0132,0.014,0.014,0.0141,0.0152,0,0,0,0,0,0,0.0367,0.0361,0.0347,0.0329,0.032,0.0303,0.0263,0.0251,0.0211,0.0201,0.0166,0.016,0.0156,0.0136,0.0136,0.0139,0.0132,0.014,0.014,0.0141,0.0151,0.0152,0.0153,0,0,0,0,0,0.0369,0.0366,0.0347,0.0341,0.0306,0.0304,0.0299,0.0256,0.0211,0.0204,0.0169,0.0159,0.0138,0.0136,0.0136,0.014,0.014,0.014,0.0141,0.0151,0.0152,0.0153,0,0,0,0,0,0,0.0385,0.0356,0.0335,0.0321,0.0309,0.0289,0.0278,0.0242,0.0208,0.0185,0.0163,0.0158,0.0145,0.0142,0.014,0.0143,0.0138,0.0138,0.0145,0.0147,0.0148,0.0176,0.0132,0,0,0,0,0,0.0385,0.0366,0.035,0.0337,0.0332,0.0297,0.0283,0.0253,0.0227,0.0206,0.0177,0.0155,0.0157,0.0146,0.0147,0.0149,0.0172,0.0151,0.0152,0.0153,0.0176,0.0214,0.0222,0.0142,0.0142,0.0142,0,0,0.0387,0.0369,0.0357,0.0338,0.0322,0.0327,0.0282,0.0259,0.0251,0.0211,0.0178,0.0158,0.0158,0.0159,0.0153,0.0149,0.0184,0.0154,0.0155,0.0177,0.0216,0.0224,0.0231,0.0143,0.0142,0.0142,0,0,0.0404,0.0369,0.0369,0.0364,0.034,0.0326,0.0314,0.0278,0.0246,0.0224,0.0196,0.0181,0.016,0.0172,0.0176,0.0188,0.0191,0.017,0.0196,0.0233,0.024,0.0247,0.0274,0.0283,0.0168,0.0168,0.0168,0,0.0405,0.0405,0.0371,0.0381,0.0379,0.0326,0.0338,0.0314,0.0268,0.0259,0.0213,0.0197,0.0181,0.0215,0.0205,0.0195,0.0205,0.0189,0.0236,0.0243,0.025,0.0276,0.0287,0.0168,0.0168,0.0168,0.0168,0,0.0438,0.0432,0.0435,0.0427,0.0422,0.042,0.0396,0.0369,0.0313,0.0292,0.028,0.0256,0.025,0.0237,0.0219,0.0258,0.0246,0.0235,0.0235,0.0259,0.0285,0.0295,0.0169,0.0169,0.0169,0.0169,0,0,0.0452,0.0457,0.0453,0.0464,0.0442,0.0446,0.0436,0.0431,0.0424,0.0371,0.0378,0.0358,0.0322,0.0326,0.03,0.032,0.0358,0.0286,0.0288,0.0319,0.0427,0.046,0.0474,0.0344,0.0346,0.0348,0.0421,0,0.0485,0.0518,0.0504,0.053,0.0551,0.0512,0.0515,0.0496,0.0461,0.0453,0.0429,0.0417,0.0364,0.0344,0.0361,0.0361,0.0387,0.0339,0.0396,0.0398,0.043,0.0489,0.0472,0.0541,0.0431,0.0433,0.0434,0,0.0524,0.0541,0.0574,0.059,0.0593,0.0589,0.0584,0.0577,0.0564,0.0534,0.0521,0.0491,0.0504,0.0448,0.0486,0.0449,0.0443,0.0444,0.0446,0.0489,0.0452,0.0501,0.0564,0.0452,0.0451,0.0449,0.0448,0,0.0565,0.0589,0.0613,0.0619,0.0628,0.0621,0.0607,0.0593,0.0587,0.0576,0.057,0.0579,0.0562,0.0579,0.0549,0.0517,0.06,0.0562,0.0597,0.0598,0.0607,0.0606,0.0613,0.0613,0.0613,0.0613,0.0613,0,0.0617,0.0635,0.0626,0.0644,0.0662,0.0647,0.0652,0.0638,0.0625,0.0629,0.06,0.0614,0.0587,0.0612,0.0601,0.064,0.0644,0.0634,0.0636,0.0608,0.0607,0.0545,0.0536,0.0616,0.0615,0.0614,0.0614,0,0.0667,0.066,0.0693,0.0693,0.0683,0.0689,0.0663,0.068,0.0646,0.0653,0.0644,0.0642,0.0677,0.0679,0.0708,0.0701,0.0741,0.0749,0.0714,0.0712,0.0701,0.0691,0.082,0.0822,0.0824,0.0825,0.0827,0,0.0703,0.0723,0.0723,0.0729,0.0719,0.0713,0.0717,0.0685,0.0694,0.0674,0.0694,0.0712,0.0745,0.0822,0.0845,0.0888,0.0812,0.0851,0.0804,0.0742,0.073,0.0717,0.0706,0.0806,0.0807,0.0808,0.0808,0,0.0776,0.0755,0.078,0.0786,0.0785,0.0808,0.0794,0.0804,0.0767,0.077,0.0802,0.0826,0.0881,0.0928,0.0952,0.0954,0.0849,0.0871,0.084,0.0758,0.0736,0.0721,0.0709,0.0816,0.0815,0.0814,0.0814,0.0814,0.0814,0.0842,0.0848,0.0862,0.0861,0.0894,0.0935,0.094,0.0963,0.0947,0.0909,0.0951,0.0984,0.1083,0.1002,0.0916,0.0984,0.0906,0.0901,0.0895,0.0883,0.0866,0.0966,0.0966,0.0967,0.0967,0.0967,0,0.0882,0.0889,0.0921,0.096,0.101,0.0951,0.0992,0.1042,0.1104,0.1056,0.1053,0.1056,0.108,0.1047,0.0964,0.0924,0.086,0.0826,0.0747,0.0747,0.0745,0.0718,0.0761,0.0759,0.0757,0.0755,0,0,0.0917,0.0969,0.1,0.1096,0.1097,0.1159,0.1189,0.1246,0.1256,0.1192,0.1175,0.1225,0.122,0.1102,0.1,0.0855,0.0787,0.0808,0.1003,0.0927,0.0922,0.085,0.0818,0,0,0,0,0]}],[{"header":{"parameterUnit":"m.s-1","parameterCategory":2,"la1":30.2991,"la2":30.254,"lo1":-89.0895,"lo2":-89.0444,"dy":0.0017,"dx":0.0017,"nx":28,"ny":28,"refTime":"2025-12-10T03:00:00:Z","depth":"4","parameterNumber":2,"parameterNumberName":"U-component_of_CURRENTS"},"data":[0,0,0,0,0,0,0,0,0,0,0,0,0,0,0,0,0,0,0,0,0,0,0,0,0,0,0,0,0,0,0,0,0,0,0,0,0,0,0,0,0,0,0,0,0,0,0,0,0,0,0,0,0,0,0,0,0,0,-0.0479,-0.0479,0,-0.0447,-0.0447,-0.0447,-0.0441,-0.0441,-0.0441,-0.0441,-0.0368,-0.0366,-0.0364,0,0,0,0,0,0,0,0,0,0,0,0,0,-0.051,-0.0509,-0.0479,-0.0479,-0.0479,-0.0447,-0.0447,-0.0447,-0.0441,-0.0441,-0.0441,-0.0442,-0.0369,-0.0366,-0.0363,0,0,0,0,0,0,0,0,0,0,0,0,0,-0.0489,-0.0509,-0.0479,-0.0472,-0.0471,-0.0447,-0.0447,-0.0446,-0.044,-0.0441,-0.0441,-0.0442,-0.0369,-0.0366,-0.0363,-0.0335,0,0,-0.0353,-0.0351,0,0,0,0,0,0,0,0,-0.049,-0.0488,-0.0473,-0.0472,-0.0471,-0.0448,-0.0431,-0.0407,-0.044,-0.0452,-0.0441,-0.0442,-0.0391,-0.0386,-0.0379,-0.0331,-0.0328,-0.0353,-0.0351,-0.0349,-0.0348,0,0,0,0,0,0,0,-0.0492,-0.0489,-0.0467,-0.0473,-0.0472,-0.0461,-0.0459,-0.0426,-0.0419,-0.0451,-0.045,-0.0447,-0.039,-0.0383,-0.0377,-0.0327,-0.0353,-0.035,-0.0348,-0.0346,-0.0251,-0.025,0,0,0,0,0,0,-0.0497,-0.0491,-0.0468,-0.0466,-0.0482,-0.0461,-0.0458,-0.0455,-0.042,-0.0415,-0.0447,-0.0447,-0.0388,-0.0381,-0.0375,-0.0343,-0.0349,-0.0346,-0.0344,-0.0251,-0.0251,-0.025,0,0,0,0,0,0,-0.0497,-0.0495,-0.0469,-0.0477,-0.0473,-0.046,-0.0457,-0.0454,-0.0455,-0.0417,-0.0412,-0.0451,-0.0388,-0.0379,-0.0353,-0.034,-0.0345,-0.0342,-0.0252,-0.0251,-0.025,-0.0276,0,0,0,0,0,0,-0.0498,-0.0495,-0.05,-0.0478,-0.0473,-0.046,-0.0456,-0.0454,-0.0452,-0.0452,-0.0418,-0.0412,-0.0388,-0.0358,-0.035,-0.0335,-0.0339,-0.0253,-0.0252,-0.0251,-0.0276,-0.0276,-0.0276,0,0,0,0,0,-0.05,-0.0501,-0.05,-0.0498,-0.0478,-0.0461,-0.0457,-0.0449,-0.0452,-0.0451,-0.0431,-0.0413,-0.0345,-0.0355,-0.0345,-0.033,-0.0253,-0.0252,-0.0251,-0.0276,-0.0276,-0.0276,0,0,0,0,0,0,-0.0514,-0.05,-0.0499,-0.0496,-0.0483,-0.046,-0.0461,-0.0454,-0.0438,-0.0441,-0.0408,-0.04,-0.0373,-0.0347,-0.0359,-0.0298,-0.0295,-0.0291,-0.0317,-0.0317,-0.0317,-0.0308,-0.0336,0,0,0,0,0,-0.052,-0.0522,-0.0502,-0.0502,-0.0499,-0.0482,-0.0477,-0.0469,-0.045,-0.0444,-0.042,-0.0389,-0.0357,-0.0336,-0.0309,-0.0273,-0.0252,-0.0255,-0.0256,-0.0256,-0.0242,-0.0195,-0.019,-0.0246,-0.0246,-0.0246,0,0,-0.0526,-0.0519,-0.052,-0.0506,-0.0499,-0.0488,-0.0481,-0.0474,-0.0464,-0.0436,-0.042,-0.0394,-0.0351,-0.0317,-0.0301,-0.0294,-0.0236,-0.0255,-0.0255,-0.024,-0.0193,-0.0188,-0.0183,-0.0245,-0.0245,-0.0245,0,0,-0.0533,-0.0534,-0.0536,-0.0526,-0.0515,-0.05,-0.0501,-0.048,-0.0474,-0.0451,-0.0429,-0.0397,-0.0351,-0.0314,-0.029,-0.0271,-0.0246,-0.0262,-0.0245,-0.0201,-0.0196,-0.0192,-0.0191,-0.0185,-0.0253,-0.0253,-0.0253,0,-0.0539,-0.0538,-0.0533,-0.0529,-0.0522,-0.0508,-0.0501,-0.0488,-0.0461,-0.0448,-0.045,-0.0375,-0.0346,-0.0289,-0.028,-0.0271,-0.0254,-0.0251,-0.0202,-0.0197,-0.0191,-0.0191,-0.0185,-0.0254,-0.0254,-0.0254,-0.0254,0,-0.0542,-0.0543,-0.0544,-0.0534,-0.0526,-0.0518,-0.0499,-0.0489,-0.0479,-0.0458,-0.0416,-0.0375,-0.0322,-0.031,-0.0285,-0.0226,-0.0232,-0.0217,-0.0204,-0.0187,-0.0188,-0.0182,-0.0256,-0.0255,-0.0255,-0.0255,0,0,-0.054,-0.0545,-0.0544,-0.0542,-0.0528,-0.0515,-0.0505,-0.0478,-0.0465,-0.0434,-0.0405,-0.0345,-0.0317,-0.0286,-0.0251,-0.0206,-0.0168,-0.0189,-0.0187,-0.0194,-0.0096,-0.014,-0.0137,-0.014,-0.0138,-0.0137,-0.0125,0,-0.0539,-0.0538,-0.0539,-0.053,-0.0523,-0.0512,-0.05,-0.0476,-0.0456,-0.0426,-0.0377,-0.0336,-0.0309,-0.028,-0.023,-0.018,-0.0145,-0.0174,-0.0105,-0.0104,-0.0148,-0.0128,-0.0131,-0.012,-0.0119,-0.0117,-0.0117,0,-0.0531,-0.0533,-0.053,-0.0524,-0.0521,-0.0512,-0.0487,-0.0473,-0.0433,-0.0418,-0.0365,-0.0331,-0.0257,-0.0243,-0.0144,-0.0162,-0.0123,-0.0093,-0.0092,-0.0111,-0.0133,-0.013,-0.0104,-0.0105,-0.0106,-0.0107,-0.0108,0,-0.0518,-0.0519,-0.0519,-0.0516,-0.0509,-0.0504,-0.0493,-0.0465,-0.0447,-0.0404,-0.0386,-0.0307,-0.0266,-0.0193,-0.0135,-0.0127,-0.0048,-0.0033,-0.0043,-0.0048,-0.0003,-0.0008,0.0039,0.0039,0.0039,0.0039,0.0039,0,-0.0503,-0.0502,-0.0514,-0.051,-0.05,-0.0498,-0.0476,-0.0464,-0.0434,-0.0404,-0.0371,-0.0337,-0.0244,-0.0194,-0.0136,-0.0081,-0.0049,-0.0034,-0.0035,-0.002,-0.0026,-0.0001,-0.0005,0.004,0.004,0.004,0.004,0,-0.0482,-0.0493,-0.0493,-0.0496,-0.0493,-0.0483,-0.0464,-0.0442,-0.0432,-0.0393,-0.0377,-0.034,-0.0289,-0.0229,-0.0132,-0.0094,-0.0036,-0.0027,-0.0051,-0.0055,-0.0068,-0.0074,-0.0023,-0.0025,-0.0026,-0.0026,-0.0027,0,-0.0471,-0.0472,-0.048,-0.0477,-0.0478,-0.0463,-0.0445,-0.0432,-0.0408,-0.0394,-0.037,-0.034,-0.0308,-0.0224,-0.0167,-0.0094,-0.0076,-0.0053,-0.0016,-0.0062,-0.0067,-0.0072,-0.0077,-0.0029,-0.0029,-0.0029,-0.0029,0,-0.0453,-0.0463,-0.0463,-0.0459,-0.0447,-0.0428,-0.0407,-0.039,-0.0372,-0.0366,-0.0345,-0.0317,-0.0284,-0.0228,-0.0191,-0.0129,-0.0065,-0.0062,-0.0059,-0.0024,-0.0068,-0.0073,-0.0077,-0.0033,-0.0032,-0.0032,-0.0032,0,-0.044,-0.0438,-0.0445,-0.0435,-0.0426,-0.0404,-0.0391,-0.0363,-0.0344,-0.0328,-0.0323,-0.0308,-0.0289,-0.0249,-0.0207,-0.0167,-0.0137,-0.0094,-0.0089,-0.0084,-0.0107,-0.0172,-0.016,0,0,0,0,0,-0.0417,-0.0416,-0.0417,-0.041,-0.0404,-0.0399,-0.037,-0.0357,-0.034,-0.0314,-0.0316,-0.0289,-0.0253,-0.025,-0.0212,-0.0225,-0.0137,-0.0179,-0.0086,-0.0051,-0.0047,-0.0066,0,0,0,0,0,0,-0.0405,-0.0404,-0.0411,-0.0396,-0.0391,-0.0377,-0.0361,-0.035,-0.0331,-0.0319,-0.03,-0.0283,-0.0251,-0.028,-0.0217,-0.021,-0.0143,-0.0164,-0.0163,-0.0053,-0.005,-0.0047,-0.0065,0,0,0,0,0]},{"header":{"parameterUnit":"m.s-1","parameterCategory":2,"la1":30.2991,"la2":30.254,"lo1":-89.0895,"lo2":-89.0444,"dy":0.0017,"dx":0.0017,"nx":28,"ny":28,"refTime":"2025-12-10T03:00:00:Z","depth":"4","parameterNumber":3,"parameterNumberName":"V-component_of_CURRENTS"},"data":[0,0,0,0,0,0,0,0,0,0,0,0,0,0,0,0,0,0,0,0,0,0,0,0,0,0,0,0,0,0,0,0,0,0,0,0,0,0,0,0,0,0,0,0,0,0,0,0,0,0,0,0,0,0,0,0,0,0,0.0537,0.0537,0,0.0546,0.0546,0.0547,0.056,0.056,0.056,0.0561,0.058,0.058,0.0581,0,0,0,0,0,0,0,0,0,0,0,0,0,0.0511,0.0511,0.0537,0.0537,0.0537,0.0546,0.0546,0.0547,0.056,0.056,0.056,0.0561,0.058,0.058,0.0581,0,0,0,0,0,0,0,0,0,0,0,0,0,0.0523,0.0512,0.0537,0.0544,0.0544,0.0546,0.0546,0.0547,0.056,0.056,0.056,0.0561,0.058,0.058,0.0581,0.0581,0,0,0.0583,0.0583,0,0,0,0,0,0,0,0,0.0522,0.0524,0.0543,0.0543,0.0544,0.0551,0.0544,0.0558,0.056,0.0555,0.0561,0.0561,0.057,0.0572,0.0575,0.0582,0.0583,0.0583,0.0583,0.0583,0.0584,0,0,0,0,0,0,0,0.0521,0.0523,0.0542,0.0543,0.0543,0.054,0.0542,0.0547,0.0563,0.0556,0.0557,0.0556,0.0571,0.0574,0.0575,0.0583,0.0583,0.0583,0.0584,0.0584,0.0616,0.0617,0,0,0,0,0,0,0.0518,0.0523,0.0541,0.0542,0.0532,0.054,0.0542,0.055,0.0563,0.0564,0.0555,0.0556,0.0573,0.0575,0.0576,0.0607,0.0583,0.0584,0.0584,0.0616,0.0617,0.0617,0,0,0,0,0,0,0.0518,0.052,0.0541,0.0531,0.0533,0.054,0.0548,0.055,0.056,0.0562,0.0564,0.0565,0.0573,0.0575,0.0592,0.0607,0.0584,0.0585,0.0615,0.0616,0.0617,0.065,0,0,0,0,0,0,0.0517,0.052,0.0531,0.0531,0.0534,0.0549,0.0548,0.055,0.0558,0.056,0.0571,0.0572,0.0573,0.0591,0.0592,0.0607,0.0585,0.0615,0.0616,0.0617,0.0648,0.0651,0.0654,0,0,0,0,0,0.0517,0.0527,0.0532,0.0534,0.0546,0.0549,0.0551,0.0556,0.0559,0.0566,0.0576,0.0572,0.0598,0.0592,0.0593,0.0609,0.0614,0.0615,0.0616,0.0646,0.0651,0.0654,0,0,0,0,0,0,0.0522,0.0529,0.0534,0.0548,0.0551,0.0551,0.056,0.056,0.0574,0.0578,0.058,0.0583,0.0598,0.0599,0.0593,0.062,0.0605,0.0606,0.0627,0.0631,0.0634,0.0636,0.0586,0,0,0,0,0,0.0528,0.0539,0.0542,0.0554,0.0558,0.056,0.0564,0.0567,0.0573,0.058,0.0587,0.0596,0.0603,0.0614,0.0616,0.0636,0.0625,0.0646,0.0649,0.0652,0.0655,0.0636,0.0638,0.0621,0.0621,0.0621,0,0,0.0533,0.0538,0.0545,0.0556,0.0561,0.0565,0.0564,0.0572,0.0577,0.0579,0.0597,0.0604,0.0608,0.0627,0.0635,0.0633,0.0655,0.0654,0.0656,0.0657,0.0637,0.0639,0.064,0.0621,0.0621,0.0621,0,0,0.054,0.0555,0.0564,0.0569,0.0576,0.0576,0.0579,0.0585,0.0593,0.0609,0.0609,0.0627,0.0642,0.0649,0.0654,0.0676,0.0665,0.0681,0.0709,0.0692,0.0693,0.0694,0.0696,0.0696,0.0691,0.0691,0.0691,0,0.0545,0.0558,0.0566,0.0573,0.0575,0.0581,0.0584,0.0592,0.0603,0.0615,0.0618,0.0645,0.065,0.0671,0.0686,0.0683,0.0678,0.0696,0.0696,0.0696,0.0696,0.0698,0.0698,0.0693,0.0693,0.0693,0.0692,0,0.0554,0.0568,0.0574,0.0584,0.0586,0.0593,0.0598,0.0613,0.0624,0.0633,0.0659,0.067,0.0691,0.0695,0.0703,0.0716,0.0714,0.0694,0.0685,0.07,0.0701,0.0701,0.0695,0.0695,0.0694,0.0694,0,0,0.0559,0.0577,0.0582,0.0586,0.0593,0.0595,0.0608,0.0624,0.0639,0.0661,0.068,0.0707,0.0725,0.0731,0.074,0.0736,0.0743,0.0728,0.0727,0.073,0.0722,0.0714,0.0712,0.0723,0.0723,0.0723,0.0727,0,0.0566,0.0579,0.0584,0.0594,0.0598,0.0608,0.0619,0.0635,0.0652,0.0674,0.0696,0.0718,0.0734,0.0752,0.0753,0.0741,0.0742,0.0745,0.0707,0.0706,0.0696,0.0711,0.0722,0.0727,0.0727,0.0727,0.0727,0,0.0573,0.0579,0.0592,0.0601,0.0605,0.0616,0.0636,0.0647,0.0679,0.0696,0.0729,0.0741,0.0768,0.076,0.0761,0.0765,0.0753,0.0738,0.0737,0.0716,0.0697,0.0705,0.0726,0.0726,0.0726,0.0726,0.0726,0,0.057,0.0584,0.0595,0.0599,0.0611,0.0628,0.0641,0.0666,0.0681,0.0718,0.073,0.076,0.0782,0.0764,0.0773,0.0762,0.0756,0.0728,0.0709,0.0708,0.0699,0.0698,0.071,0.071,0.071,0.071,0.071,0,0.057,0.0581,0.0603,0.061,0.0633,0.0636,0.0668,0.0688,0.0709,0.0735,0.0751,0.0771,0.0782,0.0788,0.0774,0.0759,0.0761,0.0718,0.0706,0.0716,0.0716,0.07,0.0699,0.071,0.071,0.071,0.071,0,0.0566,0.0582,0.0597,0.062,0.0637,0.0655,0.0692,0.0715,0.0727,0.0755,0.0769,0.0791,0.0817,0.0821,0.0807,0.0768,0.0742,0.0733,0.0772,0.0761,0.0704,0.0704,0.0695,0.0695,0.0694,0.0694,0.0694,0,0.0566,0.0573,0.0611,0.0638,0.0659,0.0692,0.0726,0.0741,0.0755,0.077,0.078,0.0815,0.0838,0.0816,0.0813,0.0789,0.0773,0.0738,0.0696,0.0711,0.0701,0.0701,0.0702,0.0694,0.0694,0.0693,0.0693,0,0.0561,0.0582,0.0599,0.0657,0.0701,0.0737,0.0775,0.0772,0.0788,0.0793,0.0798,0.0793,0.0824,0.0824,0.0825,0.0794,0.0743,0.0735,0.0734,0.0694,0.071,0.0699,0.07,0.0692,0.0693,0.0693,0.0693,0,0.0569,0.0582,0.0623,0.0671,0.0732,0.0776,0.0782,0.0799,0.0805,0.0796,0.0809,0.0829,0.0856,0.0828,0.0819,0.0807,0.0775,0.0708,0.0708,0.0709,0.0706,0.0728,0.071,0,0,0,0,0,0.0576,0.0601,0.0641,0.0699,0.0761,0.0804,0.082,0.0814,0.0809,0.0814,0.0803,0.0833,0.082,0.0816,0.0805,0.0807,0.0774,0.0783,0.0698,0.0687,0.0688,0.0682,0,0,0,0,0,0,0.0586,0.0626,0.0639,0.0724,0.0777,0.0845,0.0858,0.0848,0.0831,0.0821,0.083,0.0806,0.0818,0.0865,0.0813,0.0806,0.0733,0.0786,0.0783,0.0687,0.0688,0.0689,0.0682,0,0,0,0,0]}]]